Year,Month,Day,Hour,Minute,Value (Times are PST for windgust in km/hr)
2018,02,28,00,00,6.40
2018,02,28,00,01,6.40
2018,02,28,00,02,8.10
2018,02,28,00,03,8.10
2018,02,28,00,04,6.40
2018,02,28,00,05,6.40
2018,02,28,00,06,6.40
2018,02,28,00,07,8.10
2018,02,28,00,08,6.40
2018,02,28,00,09,6.40
2018,02,28,00,10,9.60
2018,02,28,00,11,8.10
2018,02,28,00,12,8.10
2018,02,28,00,13,8.10
2018,02,28,00,14,4.80
2018,02,28,00,15,6.40
2018,02,28,00,16,6.40
2018,02,28,00,17,8.10
2018,02,28,00,18,11.30
2018,02,28,00,19,11.30
2018,02,28,00,20,8.10
2018,02,28,00,21,11.30
2018,02,28,00,22,6.40
2018,02,28,00,23,6.40
2018,02,28,00,24,9.60
2018,02,28,00,25,12.90
2018,02,28,00,26,14.50
2018,02,28,00,27,11.30
2018,02,28,00,28,9.60
2018,02,28,00,29,11.30
2018,02,28,00,30,8.10
2018,02,28,00,31,8.10
2018,02,28,00,32,9.60
2018,02,28,00,33,6.40
2018,02,28,00,34,6.40
2018,02,28,00,35,12.90
2018,02,28,00,36,9.60
2018,02,28,00,37,6.40
2018,02,28,00,38,8.10
2018,02,28,00,39,4.80
2018,02,28,00,40,6.40
2018,02,28,00,41,11.30
2018,02,28,00,42,8.10
2018,02,28,00,43,8.10
2018,02,28,00,44,6.40
2018,02,28,00,45,6.40
2018,02,28,00,46,8.10
2018,02,28,00,47,6.40
2018,02,28,00,48,8.10
2018,02,28,00,49,14.50
2018,02,28,00,50,12.90
2018,02,28,00,51,12.90
2018,02,28,00,52,12.90
2018,02,28,00,53,14.50
2018,02,28,00,54,12.90
2018,02,28,00,55,12.90
2018,02,28,00,56,16.10
2018,02,28,00,57,12.90
2018,02,28,00,58,11.30
2018,02,28,00,59,12.90
2018,02,28,01,00,16.10
2018,02,28,01,01,12.90
2018,02,28,01,02,12.90
2018,02,28,01,03,9.60
2018,02,28,01,04,11.30
2018,02,28,01,05,9.60
2018,02,28,01,06,11.30
2018,02,28,01,07,11.30
2018,02,28,01,08,11.30
2018,02,28,01,09,11.30
2018,02,28,01,10,12.90
2018,02,28,01,11,9.60
2018,02,28,01,12,12.90
2018,02,28,01,13,9.60
2018,02,28,01,14,12.90
2018,02,28,01,15,9.60
2018,02,28,01,16,6.40
2018,02,28,01,17,9.60
2018,02,28,01,18,11.30
2018,02,28,01,19,9.60
2018,02,28,01,20,9.60
2018,02,28,01,21,9.60
2018,02,28,01,22,8.10
2018,02,28,01,23,8.10
2018,02,28,01,24,6.40
2018,02,28,01,25,6.40
2018,02,28,01,26,6.40
2018,02,28,01,27,6.40
2018,02,28,01,28,6.40
2018,02,28,01,29,8.10
2018,02,28,01,30,6.40
2018,02,28,01,31,8.10
2018,02,28,01,32,6.40
2018,02,28,01,33,4.80
2018,02,28,01,34,6.40
2018,02,28,01,35,4.80
2018,02,28,01,36,4.80
2018,02,28,01,37,4.80
2018,02,28,01,38,3.20
2018,02,28,01,39,3.20
2018,02,28,01,40,3.20
2018,02,28,01,41,3.20
2018,02,28,01,42,4.80
2018,02,28,01,43,4.80
2018,02,28,01,44,3.20
2018,02,28,01,45,4.80
2018,02,28,01,46,6.40
2018,02,28,01,47,4.80
2018,02,28,01,48,8.10
2018,02,28,01,49,9.60
2018,02,28,01,50,6.40
2018,02,28,01,51,8.10
2018,02,28,01,52,9.60
2018,02,28,01,53,6.40
2018,02,28,01,54,8.10
2018,02,28,01,55,6.40
2018,02,28,01,56,8.10
2018,02,28,01,57,6.40
2018,02,28,01,58,6.40
2018,02,28,01,59,9.60
2018,02,28,02,00,9.60
2018,02,28,02,01,11.30
2018,02,28,02,02,8.10
2018,02,28,02,03,4.80
2018,02,28,02,04,9.60
2018,02,28,02,05,8.10
2018,02,28,02,06,8.10
2018,02,28,02,07,6.40
2018,02,28,02,08,6.40
2018,02,28,02,09,4.80
2018,02,28,02,10,6.40
2018,02,28,02,11,9.60
2018,02,28,02,12,9.60
2018,02,28,02,13,8.10
2018,02,28,02,14,8.10
2018,02,28,02,15,6.40
2018,02,28,02,16,6.40
2018,02,28,02,17,6.40
2018,02,28,02,18,8.10
2018,02,28,02,19,4.80
2018,02,28,02,20,4.80
2018,02,28,02,21,3.20
2018,02,28,02,22,1.60
2018,02,28,02,23,3.20
2018,02,28,02,24,1.60
2018,02,28,02,25,3.20
2018,02,28,02,26,1.60
2018,02,28,02,27,4.80
2018,02,28,02,28,3.20
2018,02,28,02,32,3.20
2018,02,28,02,33,3.20
2018,02,28,02,34,3.20
2018,02,28,02,35,4.80
2018,02,28,02,36,3.20
2018,02,28,02,37,3.20
2018,02,28,02,38,3.20
2018,02,28,02,39,3.20
2018,02,28,02,40,4.80
2018,02,28,02,41,4.80
2018,02,28,02,42,4.80
2018,02,28,02,43,4.80
2018,02,28,02,44,6.40
2018,02,28,02,45,4.80
2018,02,28,02,46,8.10
2018,02,28,02,47,6.40
2018,02,28,02,48,6.40
2018,02,28,02,49,6.40
2018,02,28,02,50,6.40
2018,02,28,02,51,9.60
2018,02,28,02,52,8.10
2018,02,28,02,53,6.40
2018,02,28,02,54,8.10
2018,02,28,02,55,6.40
2018,02,28,02,56,8.10
2018,02,28,02,57,9.60
2018,02,28,02,58,8.10
2018,02,28,02,59,8.10
2018,02,28,03,00,11.30
2018,02,28,03,01,9.60
2018,02,28,03,02,11.30
2018,02,28,03,03,11.30
2018,02,28,03,04,8.10
2018,02,28,03,05,8.10
2018,02,28,03,06,8.10
2018,02,28,03,07,6.40
2018,02,28,03,08,6.40
2018,02,28,03,09,8.10
2018,02,28,03,10,8.10
2018,02,28,03,11,8.10
2018,02,28,03,12,9.60
2018,02,28,03,13,8.10
2018,02,28,03,14,9.60
2018,02,28,03,15,9.60
2018,02,28,03,16,11.30
2018,02,28,03,17,8.10
2018,02,28,03,18,12.90
2018,02,28,03,19,9.60
2018,02,28,03,20,8.10
2018,02,28,03,21,8.10
2018,02,28,03,22,8.10
2018,02,28,03,23,8.10
2018,02,28,03,24,6.40
2018,02,28,03,25,6.40
2018,02,28,03,26,6.40
2018,02,28,03,27,6.40
2018,02,28,03,28,4.80
2018,02,28,03,29,3.20
2018,02,28,03,30,3.20
2018,02,28,03,31,3.20
2018,02,28,03,32,3.20
2018,02,28,03,33,3.20
2018,02,28,03,34,3.20
2018,02,28,03,35,3.20
2018,02,28,03,36,3.20
2018,02,28,03,37,3.20
2018,02,28,03,38,3.20
2018,02,28,03,39,4.80
2018,02,28,03,40,4.80
2018,02,28,03,41,6.40
2018,02,28,03,42,9.60
2018,02,28,03,43,9.60
2018,02,28,03,44,8.10
2018,02,28,03,45,8.10
2018,02,28,03,46,6.40
2018,02,28,03,47,4.80
2018,02,28,03,48,6.40
2018,02,28,03,49,8.10
2018,02,28,03,50,6.40
2018,02,28,03,51,6.40
2018,02,28,03,52,6.40
2018,02,28,03,53,6.40
2018,02,28,03,54,6.40
2018,02,28,03,55,6.40
2018,02,28,03,56,4.80
2018,02,28,03,57,6.40
2018,02,28,03,58,6.40
2018,02,28,03,59,4.80
2018,02,28,04,00,4.80
2018,02,28,04,01,6.40
2018,02,28,04,02,8.10
2018,02,28,04,03,3.20
2018,02,28,04,04,3.20
2018,02,28,04,05,4.80
2018,02,28,04,06,8.10
2018,02,28,04,07,6.40
2018,02,28,04,08,6.40
2018,02,28,04,09,3.20
2018,02,28,04,10,3.20
2018,02,28,04,11,4.80
2018,02,28,04,12,3.20
2018,02,28,04,13,4.80
2018,02,28,04,14,4.80
2018,02,28,04,15,4.80
2018,02,28,04,16,4.80
2018,02,28,04,17,4.80
2018,02,28,04,18,3.20
2018,02,28,04,19,4.80
2018,02,28,04,20,4.80
2018,02,28,04,21,3.20
2018,02,28,04,22,3.20
2018,02,28,04,23,3.20
2018,02,28,04,24,1.60
2018,02,28,04,25,1.60
2018,02,28,04,27,1.60
2018,02,28,04,28,1.60
2018,02,28,04,29,3.20
2018,02,28,04,30,3.20
2018,02,28,04,31,3.20
2018,02,28,04,32,4.80
2018,02,28,04,33,4.80
2018,02,28,04,34,4.80
2018,02,28,04,35,1.60
2018,02,28,04,36,3.20
2018,02,28,04,38,3.20
2018,02,28,04,39,3.20
2018,02,28,04,40,1.60
2018,02,28,04,45,8.10
2018,02,28,04,46,8.10
2018,02,28,04,47,4.80
2018,02,28,04,48,3.20
2018,02,28,04,49,1.60
2018,02,28,04,50,1.60
2018,02,28,04,51,4.80
2018,02,28,04,52,6.40
2018,02,28,04,53,3.20
2018,02,28,04,54,8.10
2018,02,28,04,55,8.10
2018,02,28,04,56,3.20
2018,02,28,04,57,1.60
2018,02,28,05,01,6.40
2018,02,28,05,02,6.40
2018,02,28,05,03,6.40
2018,02,28,05,04,4.80
2018,02,28,05,05,4.80
2018,02,28,05,06,8.10
2018,02,28,05,07,4.80
2018,02,28,05,08,3.20
2018,02,28,05,09,3.20
2018,02,28,05,10,1.60
2018,02,28,05,11,3.20
2018,02,28,05,12,3.20
2018,02,28,05,13,3.20
2018,02,28,05,14,3.20
2018,02,28,05,16,3.20
2018,02,28,05,17,3.20
2018,02,28,05,18,3.20
2018,02,28,05,19,4.80
2018,02,28,05,20,8.10
2018,02,28,05,21,6.40
2018,02,28,05,22,4.80
2018,02,28,05,23,4.80
2018,02,28,05,24,11.30
2018,02,28,05,25,4.80
2018,02,28,05,26,8.10
2018,02,28,05,27,6.40
2018,02,28,05,28,3.20
2018,02,28,05,29,6.40
2018,02,28,05,30,8.10
2018,02,28,05,31,4.80
2018,02,28,05,32,8.10
2018,02,28,05,33,11.30
2018,02,28,05,34,4.80
2018,02,28,05,35,4.80
2018,02,28,05,36,9.60
2018,02,28,05,37,8.10
2018,02,28,05,38,4.80
2018,02,28,05,39,8.10
2018,02,28,05,40,6.40
2018,02,28,05,41,8.10
2018,02,28,05,42,4.80
2018,02,28,05,43,6.40
2018,02,28,05,44,6.40
2018,02,28,05,45,6.40
2018,02,28,05,46,6.40
2018,02,28,05,47,4.80
2018,02,28,05,48,9.60
2018,02,28,05,49,8.10
2018,02,28,05,50,6.40
2018,02,28,05,51,1.60
2018,02,28,05,52,8.10
2018,02,28,05,53,11.30
2018,02,28,05,54,4.80
2018,02,28,05,55,1.60
2018,02,28,05,56,6.40
2018,02,28,05,57,4.80
2018,02,28,05,58,4.80
2018,02,28,05,59,4.80
2018,02,28,06,00,6.40
2018,02,28,06,01,9.60
2018,02,28,06,02,9.60
2018,02,28,06,03,12.90
2018,02,28,06,04,11.30
2018,02,28,06,05,11.30
2018,02,28,06,06,9.60
2018,02,28,06,07,11.30
2018,02,28,06,08,4.80
2018,02,28,06,09,9.60
2018,02,28,06,10,11.30
2018,02,28,06,11,4.80
2018,02,28,06,12,3.20
2018,02,28,06,13,6.40
2018,02,28,06,14,16.10
2018,02,28,06,15,12.90
2018,02,28,06,16,9.60
2018,02,28,06,17,8.10
2018,02,28,06,18,9.60
2018,02,28,06,19,9.60
2018,02,28,06,20,9.60
2018,02,28,06,21,6.40
2018,02,28,06,22,12.90
2018,02,28,06,23,8.10
2018,02,28,06,24,4.80
2018,02,28,06,25,3.20
2018,02,28,06,26,1.60
2018,02,28,06,27,3.20
2018,02,28,06,28,3.20
2018,02,28,06,29,3.20
2018,02,28,06,30,1.60
2018,02,28,06,31,4.80
2018,02,28,06,34,4.80
2018,02,28,06,35,3.20
2018,02,28,06,36,1.60
2018,02,28,06,38,3.20
2018,02,28,06,39,4.80
2018,02,28,06,40,4.80
2018,02,28,06,41,8.10
2018,02,28,06,42,8.10
2018,02,28,06,43,4.80
2018,02,28,06,44,4.80
2018,02,28,06,45,8.10
2018,02,28,06,46,4.80
2018,02,28,06,47,9.60
2018,02,28,06,48,4.80
2018,02,28,06,49,8.10
2018,02,28,06,50,11.30
2018,02,28,06,51,8.10
2018,02,28,06,52,4.80
2018,02,28,06,53,4.80
2018,02,28,06,54,4.80
2018,02,28,06,55,1.60
2018,02,28,06,56,8.10
2018,02,28,06,57,8.10
2018,02,28,06,58,4.80
2018,02,28,06,59,8.10
2018,02,28,07,00,4.80
2018,02,28,07,01,4.80
2018,02,28,07,02,1.60
2018,02,28,07,03,3.20
2018,02,28,07,04,3.20
2018,02,28,07,05,3.20
2018,02,28,07,06,3.20
2018,02,28,07,07,4.80
2018,02,28,07,08,3.20
2018,02,28,07,09,4.80
2018,02,28,07,10,4.80
2018,02,28,07,11,4.80
2018,02,28,07,12,3.20
2018,02,28,07,14,4.80
2018,02,28,07,15,6.40
2018,02,28,07,19,3.20
2018,02,28,07,20,3.20
2018,02,28,07,21,4.80
2018,02,28,07,22,4.80
2018,02,28,07,23,8.10
2018,02,28,07,24,6.40
2018,02,28,07,25,4.80
2018,02,28,07,26,3.20
2018,02,28,07,27,9.60
2018,02,28,07,28,9.60
2018,02,28,07,29,4.80
2018,02,28,07,30,8.10
2018,02,28,07,31,11.30
2018,02,28,07,32,9.60
2018,02,28,07,33,4.80
2018,02,28,07,34,8.10
2018,02,28,07,35,11.30
2018,02,28,07,36,16.10
2018,02,28,07,37,16.10
2018,02,28,07,38,4.80
2018,02,28,07,39,11.30
2018,02,28,07,40,14.50
2018,02,28,07,41,14.50
2018,02,28,07,42,12.90
2018,02,28,07,43,11.30
2018,02,28,07,44,9.60
2018,02,28,07,45,9.60
2018,02,28,07,46,16.10
2018,02,28,07,47,11.30
2018,02,28,07,48,8.10
2018,02,28,07,49,11.30
2018,02,28,07,50,14.50
2018,02,28,07,51,4.80
2018,02,28,07,52,4.80
2018,02,28,07,53,4.80
2018,02,28,07,54,9.60
2018,02,28,07,55,3.20
2018,02,28,07,56,9.60
2018,02,28,07,57,9.60
2018,02,28,07,58,4.80
2018,02,28,07,59,9.60
2018,02,28,08,00,8.10
2018,02,28,08,01,11.30
2018,02,28,08,02,12.90
2018,02,28,08,03,6.40
2018,02,28,08,04,3.20
2018,02,28,08,05,4.80
2018,02,28,08,06,11.30
2018,02,28,08,07,12.90
2018,02,28,08,08,8.10
2018,02,28,08,09,3.20
2018,02,28,08,10,9.60
2018,02,28,08,11,11.30
2018,02,28,08,12,12.90
2018,02,28,08,13,11.30
2018,02,28,08,14,16.10
2018,02,28,08,15,12.90
2018,02,28,08,16,14.50
2018,02,28,08,17,12.90
2018,02,28,08,18,8.10
2018,02,28,08,19,9.60
2018,02,28,08,20,11.30
2018,02,28,08,21,8.10
2018,02,28,08,22,8.10
2018,02,28,08,23,12.90
2018,02,28,08,24,12.90
2018,02,28,08,25,12.90
2018,02,28,08,26,12.90
2018,02,28,08,27,8.10
2018,02,28,08,28,11.30
2018,02,28,08,29,14.50
2018,02,28,08,30,16.10
2018,02,28,08,31,17.70
2018,02,28,08,32,12.90
2018,02,28,08,33,12.90
2018,02,28,08,34,6.40
2018,02,28,08,35,6.40
2018,02,28,08,36,9.60
2018,02,28,08,37,3.20
2018,02,28,08,38,8.10
2018,02,28,08,39,11.30
2018,02,28,08,40,11.30
2018,02,28,08,41,6.40
2018,02,28,08,42,6.40
2018,02,28,08,43,14.50
2018,02,28,08,44,22.50
2018,02,28,08,45,20.90
2018,02,28,08,46,14.50
2018,02,28,08,47,16.10
2018,02,28,08,48,12.90
2018,02,28,08,49,8.10
2018,02,28,08,50,14.50
2018,02,28,08,51,11.30
2018,02,28,08,52,16.10
2018,02,28,08,53,11.30
2018,02,28,08,54,8.10
2018,02,28,08,55,8.10
2018,02,28,08,56,20.90
2018,02,28,08,57,12.90
2018,02,28,08,58,17.70
2018,02,28,08,59,17.70
2018,02,28,09,00,11.30
2018,02,28,09,01,16.10
2018,02,28,09,02,14.50
2018,02,28,09,03,12.90
2018,02,28,09,04,11.30
2018,02,28,09,05,12.90
2018,02,28,09,06,17.70
2018,02,28,09,07,17.70
2018,02,28,09,08,11.30
2018,02,28,09,09,12.90
2018,02,28,09,10,16.10
2018,02,28,09,11,19.30
2018,02,28,09,12,11.30
2018,02,28,09,13,11.30
2018,02,28,09,14,9.60
2018,02,28,09,15,12.90
2018,02,28,09,16,17.70
2018,02,28,09,17,22.50
2018,02,28,09,18,16.10
2018,02,28,09,19,16.10
2018,02,28,09,20,14.50
2018,02,28,09,21,16.10
2018,02,28,09,22,14.50
2018,02,28,09,23,14.50
2018,02,28,09,24,12.90
2018,02,28,09,25,20.90
2018,02,28,09,26,11.30
2018,02,28,09,27,20.90
2018,02,28,09,28,14.50
2018,02,28,09,29,24.20
2018,02,28,09,30,19.30
2018,02,28,09,31,19.30
2018,02,28,09,32,22.50
2018,02,28,09,33,12.90
2018,02,28,09,34,17.70
2018,02,28,09,35,25.70
2018,02,28,09,36,22.50
2018,02,28,09,37,11.30
2018,02,28,09,38,29.00
2018,02,28,09,39,24.20
2018,02,28,09,40,20.90
2018,02,28,09,41,16.10
2018,02,28,09,42,12.90
2018,02,28,09,43,24.20
2018,02,28,09,44,24.20
2018,02,28,09,45,12.90
2018,02,28,09,46,24.20
2018,02,28,09,47,22.50
2018,02,28,09,48,20.90
2018,02,28,09,49,24.20
2018,02,28,09,50,24.20
2018,02,28,09,51,19.30
2018,02,28,09,52,17.70
2018,02,28,09,53,8.10
2018,02,28,09,54,8.10
2018,02,28,09,55,17.70
2018,02,28,09,56,22.50
2018,02,28,09,57,12.90
2018,02,28,09,58,14.50
2018,02,28,09,59,17.70
2018,02,28,10,00,17.70
2018,02,28,10,01,19.30
2018,02,28,10,02,22.50
2018,02,28,10,03,25.70
2018,02,28,10,04,19.30
2018,02,28,10,05,17.70
2018,02,28,10,06,12.90
2018,02,28,10,07,16.10
2018,02,28,10,08,16.10
2018,02,28,10,09,17.70
2018,02,28,10,10,32.20
2018,02,28,10,11,20.90
2018,02,28,10,12,20.90
2018,02,28,10,13,16.10
2018,02,28,10,14,17.70
2018,02,28,10,15,24.20
2018,02,28,10,16,19.30
2018,02,28,10,17,20.90
2018,02,28,10,18,19.30
2018,02,28,10,19,17.70
2018,02,28,10,20,27.40
2018,02,28,10,21,20.90
2018,02,28,10,22,22.50
2018,02,28,10,23,17.70
2018,02,28,10,24,25.70
2018,02,28,10,25,30.60
2018,02,28,10,26,17.70
2018,02,28,10,27,22.50
2018,02,28,10,28,16.10
2018,02,28,10,29,20.90
2018,02,28,10,30,22.50
2018,02,28,10,31,11.30
2018,02,28,10,32,16.10
2018,02,28,10,33,16.10
2018,02,28,10,34,19.30
2018,02,28,10,35,24.20
2018,02,28,10,36,17.70
2018,02,28,10,37,16.10
2018,02,28,10,38,12.90
2018,02,28,10,39,11.30
2018,02,28,10,40,17.70
2018,02,28,10,41,16.10
2018,02,28,10,42,25.70
2018,02,28,10,43,24.20
2018,02,28,10,44,27.40
2018,02,28,10,45,19.30
2018,02,28,10,46,17.70
2018,02,28,10,47,17.70
2018,02,28,10,48,27.40
2018,02,28,10,49,25.70
2018,02,28,10,50,32.20
2018,02,28,10,51,24.20
2018,02,28,10,52,22.50
2018,02,28,10,53,24.20
2018,02,28,10,54,33.80
2018,02,28,10,55,33.80
2018,02,28,10,56,27.40
2018,02,28,10,57,25.70
2018,02,28,10,58,20.90
2018,02,28,10,59,16.10
2018,02,28,11,00,17.70
2018,02,28,11,01,17.70
2018,02,28,11,02,30.60
2018,02,28,11,03,29.00
2018,02,28,11,04,35.40
2018,02,28,11,05,37.00
2018,02,28,11,06,30.60
2018,02,28,11,07,25.70
2018,02,28,11,08,24.20
2018,02,28,11,09,25.70
2018,02,28,11,10,17.70
2018,02,28,11,11,30.60
2018,02,28,11,12,20.90
2018,02,28,11,13,17.70
2018,02,28,11,14,25.70
2018,02,28,11,15,24.20
2018,02,28,11,16,19.30
2018,02,28,11,17,25.70
2018,02,28,11,18,22.50
2018,02,28,11,19,22.50
2018,02,28,11,20,20.90
2018,02,28,11,21,20.90
2018,02,28,11,22,19.30
2018,02,28,11,23,19.30
2018,02,28,11,24,32.20
2018,02,28,11,25,30.60
2018,02,28,11,26,29.00
2018,02,28,11,27,14.50
2018,02,28,11,28,32.20
2018,02,28,11,29,30.60
2018,02,28,11,30,25.70
2018,02,28,11,31,35.40
2018,02,28,11,32,24.20
2018,02,28,11,33,33.80
2018,02,28,11,34,35.40
2018,02,28,11,35,25.70
2018,02,28,11,36,29.00
2018,02,28,11,37,24.20
2018,02,28,11,38,25.70
2018,02,28,11,39,30.60
2018,02,28,11,40,30.60
2018,02,28,11,41,27.40
2018,02,28,11,42,25.70
2018,02,28,11,43,20.90
2018,02,28,11,44,22.50
2018,02,28,11,45,30.60
2018,02,28,11,46,35.40
2018,02,28,11,47,37.00
2018,02,28,11,48,32.20
2018,02,28,11,49,29.00
2018,02,28,11,50,29.00
2018,02,28,11,51,25.70
2018,02,28,11,52,30.60
2018,02,28,11,53,35.40
2018,02,28,11,54,29.00
2018,02,28,11,55,32.20
2018,02,28,11,56,33.80
2018,02,28,11,57,38.60
2018,02,28,11,58,33.80
2018,02,28,11,59,41.80
2018,02,28,12,00,35.40
2018,02,28,12,01,35.40
2018,02,28,12,02,24.20
2018,02,28,12,03,29.00
2018,02,28,12,04,22.50
2018,02,28,12,05,40.20
2018,02,28,12,06,38.60
2018,02,28,12,07,20.90
2018,02,28,12,08,27.40
2018,02,28,12,09,46.70
2018,02,28,12,10,29.00
2018,02,28,12,11,37.00
2018,02,28,12,12,35.40
2018,02,28,12,13,24.20
2018,02,28,12,14,22.50
2018,02,28,12,15,35.40
2018,02,28,12,16,40.20
2018,02,28,12,17,33.80
2018,02,28,12,18,12.90
2018,02,28,12,19,16.10
2018,02,28,12,20,17.70
2018,02,28,12,21,32.20
2018,02,28,12,22,38.60
2018,02,28,12,23,30.60
2018,02,28,12,24,32.20
2018,02,28,12,25,29.00
2018,02,28,12,26,22.50
2018,02,28,12,27,19.30
2018,02,28,12,28,35.40
2018,02,28,12,29,35.40
2018,02,28,12,30,45.10
2018,02,28,12,31,35.40
2018,02,28,12,32,25.70
2018,02,28,12,33,40.20
2018,02,28,12,34,43.50
2018,02,28,12,35,45.10
2018,02,28,12,36,38.60
2018,02,28,12,37,30.60
2018,02,28,12,38,35.40
2018,02,28,12,39,35.40
2018,02,28,12,40,37.00
2018,02,28,12,41,40.20
2018,02,28,12,42,25.70
2018,02,28,12,43,30.60
2018,02,28,12,44,20.90
2018,02,28,12,45,35.40
2018,02,28,12,46,30.60
2018,02,28,12,47,40.20
2018,02,28,12,48,35.40
2018,02,28,12,49,33.80
2018,02,28,12,50,22.50
2018,02,28,12,51,27.40
2018,02,28,12,52,17.70
2018,02,28,12,53,22.50
2018,02,28,12,54,35.40
2018,02,28,12,55,22.50
2018,02,28,12,56,32.20
2018,02,28,12,57,27.40
2018,02,28,12,58,25.70
2018,02,28,12,59,22.50
2018,02,28,13,00,37.00
2018,02,28,13,01,29.00
2018,02,28,13,02,27.40
2018,02,28,13,03,38.60
2018,02,28,13,04,35.40
2018,02,28,13,05,32.20
2018,02,28,13,06,38.60
2018,02,28,13,07,35.40
2018,02,28,13,08,33.80
2018,02,28,13,09,33.80
2018,02,28,13,10,24.20
2018,02,28,13,11,38.60
2018,02,28,13,12,33.80
2018,02,28,13,13,29.00
2018,02,28,13,14,29.00
2018,02,28,13,15,17.70
2018,02,28,13,16,25.70
2018,02,28,13,17,33.80
2018,02,28,13,18,40.20
2018,02,28,13,19,17.70
2018,02,28,13,20,22.50
2018,02,28,13,21,24.20
2018,02,28,13,22,29.00
2018,02,28,13,23,29.00
2018,02,28,13,24,33.80
2018,02,28,13,25,32.20
2018,02,28,13,26,27.40
2018,02,28,13,27,27.40
2018,02,28,13,28,33.80
2018,02,28,13,29,27.40
2018,02,28,13,30,33.80
2018,02,28,13,31,30.60
2018,02,28,13,32,30.60
2018,02,28,13,33,27.40
2018,02,28,13,34,33.80
2018,02,28,13,35,29.00
2018,02,28,13,36,33.80
2018,02,28,13,37,24.20
2018,02,28,13,38,19.30
2018,02,28,13,39,16.10
2018,02,28,13,40,46.70
2018,02,28,13,41,33.80
2018,02,28,13,42,24.20
2018,02,28,13,43,41.80
2018,02,28,13,44,43.50
2018,02,28,13,45,32.20
2018,02,28,13,46,33.80
2018,02,28,13,47,25.70
2018,02,28,13,48,33.80
2018,02,28,13,49,27.40
2018,02,28,13,50,29.00
2018,02,28,13,51,33.80
2018,02,28,13,52,45.10
2018,02,28,13,53,35.40
2018,02,28,13,54,33.80
2018,02,28,13,55,30.60
2018,02,28,13,56,29.00
2018,02,28,13,57,29.00
2018,02,28,13,58,29.00
2018,02,28,13,59,27.40
2018,02,28,14,00,38.60
2018,02,28,14,01,30.60
2018,02,28,14,02,35.40
2018,02,28,14,03,32.20
2018,02,28,14,04,25.70
2018,02,28,14,05,37.00
2018,02,28,14,06,40.20
2018,02,28,14,07,41.80
2018,02,28,14,08,22.50
2018,02,28,14,09,29.00
2018,02,28,14,10,38.60
2018,02,28,14,11,33.80
2018,02,28,14,12,19.30
2018,02,28,14,13,27.40
2018,02,28,14,14,27.40
2018,02,28,14,15,24.20
2018,02,28,14,16,37.00
2018,02,28,14,17,27.40
2018,02,28,14,18,22.50
2018,02,28,14,19,25.70
2018,02,28,14,20,27.40
2018,02,28,14,21,30.60
2018,02,28,14,22,37.00
2018,02,28,14,23,33.80
2018,02,28,14,24,33.80
2018,02,28,14,25,33.80
2018,02,28,14,26,30.60
2018,02,28,14,27,17.70
2018,02,28,14,28,30.60
2018,02,28,14,29,24.20
2018,02,28,14,30,17.70
2018,02,28,14,31,24.20
2018,02,28,14,32,29.00
2018,02,28,14,33,33.80
2018,02,28,14,34,30.60
2018,02,28,14,35,27.40
2018,02,28,14,36,25.70
2018,02,28,14,37,19.30
2018,02,28,14,38,22.50
2018,02,28,14,39,22.50
2018,02,28,14,40,25.70
2018,02,28,14,41,29.00
2018,02,28,14,42,32.20
2018,02,28,14,43,30.60
2018,02,28,14,44,30.60
2018,02,28,14,45,19.30
2018,02,28,14,46,40.20
2018,02,28,14,47,35.40
2018,02,28,14,48,25.70
2018,02,28,14,49,35.40
2018,02,28,14,50,35.40
2018,02,28,14,51,25.70
2018,02,28,14,52,27.40
2018,02,28,14,53,24.20
2018,02,28,14,54,24.20
2018,02,28,14,55,25.70
2018,02,28,14,56,38.60
2018,02,28,14,57,27.40
2018,02,28,14,58,33.80
2018,02,28,14,59,25.70
2018,02,28,15,00,30.60
2018,02,28,15,01,40.20
2018,02,28,15,02,37.00
2018,02,28,15,03,25.70
2018,02,28,15,04,22.50
2018,02,28,15,05,24.20
2018,02,28,15,06,29.00
2018,02,28,15,07,20.90
2018,02,28,15,08,25.70
2018,02,28,15,09,32.20
2018,02,28,15,10,25.70
2018,02,28,15,11,25.70
2018,02,28,15,12,27.40
2018,02,28,15,13,29.00
2018,02,28,15,14,22.50
2018,02,28,15,15,25.70
2018,02,28,15,16,22.50
2018,02,28,15,17,30.60
2018,02,28,15,18,27.40
2018,02,28,15,19,24.20
2018,02,28,15,20,19.30
2018,02,28,15,21,20.90
2018,02,28,15,22,11.30
2018,02,28,15,23,19.30
2018,02,28,15,24,17.70
2018,02,28,15,25,33.80
2018,02,28,15,26,33.80
2018,02,28,15,27,25.70
2018,02,28,15,28,17.70
2018,02,28,15,29,30.60
2018,02,28,15,30,22.50
2018,02,28,15,31,29.00
2018,02,28,15,32,24.20
2018,02,28,15,33,29.00
2018,02,28,15,34,32.20
2018,02,28,15,35,27.40
2018,02,28,15,36,27.40
2018,02,28,15,37,35.40
2018,02,28,15,38,40.20
2018,02,28,15,39,33.80
2018,02,28,15,40,30.60
2018,02,28,15,41,20.90
2018,02,28,15,42,22.50
2018,02,28,15,43,29.00
2018,02,28,15,44,24.20
2018,02,28,15,45,29.00
2018,02,28,15,46,22.50
2018,02,28,15,47,16.10
2018,02,28,15,48,22.50
2018,02,28,15,49,38.60
2018,02,28,15,50,37.00
2018,02,28,15,51,32.20
2018,02,28,15,52,35.40
2018,02,28,15,53,37.00
2018,02,28,15,54,22.50
2018,02,28,15,55,24.20
2018,02,28,15,56,30.60
2018,02,28,15,57,32.20
2018,02,28,15,58,29.00
2018,02,28,15,59,17.70
2018,02,28,16,00,40.20
2018,02,28,16,01,35.40
2018,02,28,16,02,32.20
2018,02,28,16,03,41.80
2018,02,28,16,04,40.20
2018,02,28,16,05,27.40
2018,02,28,16,06,24.20
2018,02,28,16,07,22.50
2018,02,28,16,08,35.40
2018,02,28,16,09,35.40
2018,02,28,16,10,25.70
2018,02,28,16,11,35.40
2018,02,28,16,12,32.20
2018,02,28,16,13,29.00
2018,02,28,16,14,27.40
2018,02,28,16,15,17.70
2018,02,28,16,16,29.00
2018,02,28,16,17,45.10
2018,02,28,16,18,29.00
2018,02,28,16,19,35.40
2018,02,28,16,20,37.00
2018,02,28,16,21,30.60
2018,02,28,16,22,35.40
2018,02,28,16,23,41.80
2018,02,28,16,24,25.70
2018,02,28,16,25,35.40
2018,02,28,16,26,25.70
2018,02,28,16,27,35.40
2018,02,28,16,28,22.50
2018,02,28,16,29,41.80
2018,02,28,16,30,24.20
2018,02,28,16,31,37.00
2018,02,28,16,32,27.40
2018,02,28,16,33,45.10
2018,02,28,16,34,35.40
2018,02,28,16,35,35.40
2018,02,28,16,36,40.20
2018,02,28,16,37,30.60
2018,02,28,16,38,40.20
2018,02,28,16,39,40.20
2018,02,28,16,40,29.00
2018,02,28,16,41,35.40
2018,02,28,16,42,38.60
2018,02,28,16,43,33.80
2018,02,28,16,44,32.20
2018,02,28,16,45,30.60
2018,02,28,16,46,35.40
2018,02,28,16,47,32.20
2018,02,28,16,48,27.40
2018,02,28,16,49,35.40
2018,02,28,16,50,22.50
2018,02,28,16,51,29.00
2018,02,28,16,52,30.60
2018,02,28,16,53,40.20
2018,02,28,16,54,32.20
2018,02,28,16,55,19.30
2018,02,28,16,56,24.20
2018,02,28,16,57,40.20
2018,02,28,16,58,29.00
2018,02,28,16,59,38.60
2018,02,28,17,00,24.20
2018,02,28,17,01,33.80
2018,02,28,17,02,27.40
2018,02,28,17,03,32.20
2018,02,28,17,04,24.20
2018,02,28,17,05,25.70
2018,02,28,17,06,24.20
2018,02,28,17,07,25.70
2018,02,28,17,08,33.80
2018,02,28,17,09,33.80
2018,02,28,17,10,33.80
2018,02,28,17,11,33.80
2018,02,28,17,12,33.80
2018,02,28,17,13,33.80
2018,02,28,17,14,35.40
2018,02,28,17,15,45.10
2018,02,28,17,16,46.70
2018,02,28,17,17,33.80
2018,02,28,17,18,33.80
2018,02,28,17,19,32.20
2018,02,28,17,20,51.50
2018,02,28,17,21,43.50
2018,02,28,17,22,43.50
2018,02,28,17,23,40.20
2018,02,28,17,24,48.30
2018,02,28,17,25,37.00
2018,02,28,17,26,29.00
2018,02,28,17,27,27.40
2018,02,28,17,28,25.70
2018,02,28,17,29,32.20
2018,02,28,17,30,29.00
2018,02,28,17,31,45.10
2018,02,28,17,32,30.60
2018,02,28,17,33,41.80
2018,02,28,17,34,35.40
2018,02,28,17,35,45.10
2018,02,28,17,36,27.40
2018,02,28,17,37,32.20
2018,02,28,17,38,41.80
2018,02,28,17,39,33.80
2018,02,28,17,40,33.80
2018,02,28,17,41,38.60
2018,02,28,17,42,33.80
2018,02,28,17,43,37.00
2018,02,28,17,44,40.20
2018,02,28,17,45,49.90
2018,02,28,17,46,43.50
2018,02,28,17,47,32.20
2018,02,28,17,48,46.70
2018,02,28,17,49,27.40
2018,02,28,17,50,38.60
2018,02,28,17,51,51.50
2018,02,28,17,52,46.70
2018,02,28,17,53,37.00
2018,02,28,17,54,25.70
2018,02,28,17,55,30.60
2018,02,28,17,56,45.10
2018,02,28,17,57,56.30